Language selection

My Weather Profile Weather Topics  | 

Douglas Channel: Past 24 Hour Conditions

 

Grey Islet

04:00 AM PDT 08 May 2021
Disclaimer

This table is a summary of hourly weather conditions for the past 24 hours.
Please note that these observations might not always be representative of weather conditions over their associated marine area.

Date / Time
(PDT)
Wind(knots) Conditions Visibility(km) Pressure(kPa) Air tempC) Relative humidity(%) Dew pointC)
08 May 2021
4:00 SSE 20 N/A N/A 102.1 7 80 4
3:00 SSE 25 N/A N/A 102.1 7 83 5
2:00 SSE 22 N/A N/A 102.1 7 86 5
1:00 SSE 22 N/A N/A 102.1 7 89 5
0:00 SSE 22 N/A N/A 102.1 7 90 5
07 May 2021
23:00 SSE 22 N/A N/A 102.1 7 90 5
22:00 SSE 22 N/A N/A 102.1 7 90 5
21:00 SSE 23 N/A N/A 102.0 7 89 5
20:00 SSE 24 N/A N/A 102.0 7 90 6
19:00 SSE 23 N/A N/A 101.9 7 88 5
18:00 SSE 23 N/A N/A 101.9 7 87 5
17:00 SSE 22 N/A N/A 101.9 7 89 6
16:00 SSE 23 N/A N/A 101.8 7 87 5
15:00 SSE 23 N/A N/A 101.8 8 87 6
14:00 SSE 24 N/A N/A 101.7 8 82 5
13:00 SSE 22 N/A N/A 101.6 8 84 5
12:00 SSE 22 N/A N/A 101.6 8 81 5
11:00 SSE 21 N/A N/A 101.5 8 80 5
10:00 SSE 22 N/A N/A 101.5 7 81 5
9:00 SE 19 N/A N/A 101.5 7 85 5
8:00 SSE 18 gust 23 N/A N/A 101.4 7 87 5
7:00 SSE 21 gust 26 N/A N/A 101.4 7 87 5
6:00 SSE 24 N/A N/A 101.3 7 87 5
5:00 SSE 25 N/A N/A 101.2 7 83 5
4:00 SSE 21 N/A N/A 101.2 8 83 5

Zoom-in to make a selection

Map of Pacific - North Coast marine weather areas Middle Nomad - 46004 South Nomad - 46036 Dixon Entrance Central - 46145 South Moresby - 46147 Nanakwa Shoal - 46181 North Hecate Strait - 46183 North Nomad - 46184 South Hecate Strait - 46185 West Sea Otter - 46204 West Dixon Entrance - 46205 East Dellwood - 46207 West Moresby - 46208 Sartine Island Cape St.James Kindakun Rocks Langara Island Masset Municipal Airport Rose Spit Sandspit Airport Bella Bella Airport Bella Coola Airport Bonilla Island Cathedral Point Cumshewa Island Grey Islet Holland Rock Lucy Islands Lightstation Prince Rupert Airport
Legend:
buoy Buoy
land station Land Station

Pacific - North Coast Area

Another Region

What we are doing

Date modified: